KA1WBH Weather Reports


time (UTC)temp
C
wind
direction
speed
KPH
gust
KPH
rain 1hr
cm
rain 24hr
cm
rain mn
cm
humidity
%
barometer
mb
20210723152854 25 85 0.0 9.7 0.00 0.00 0.00 69 1018.1
20210723151854 25 112 4.8 8.0 0.00 0.00 0.00 67 1018.3
20210723150854 25 131 4.8 8.0 0.00 0.00 0.00 69 1018.3
20210723145854 25 104 6.4 9.7 0.00 0.00 0.00 68 1018.3
20210723144854 25 141 0.0 9.7 0.00 0.00 0.00 68 1018.3
20210723143854 25 102 1.6 9.7 0.00 0.00 0.00 68 1018.3
20210723142854 25 90 0.0 4.8 0.00 0.00 0.00 65 1018.4
20210723141854 25 93 0.0 0.0 0.00 0.00 0.00 67 1018.2
20210723140854 24 93 0.0 4.8 0.00 0.00 0.00 67 1018.3
20210723135854 24 92 0.0 4.8 0.00 0.00 0.00 67 1018.3
20210723134854 24 89 3.2 6.4 0.00 0.00 0.00 71 1018.3
20210723133854 23 63 4.8 6.4 0.00 0.00 0.00 70 1018.3
20210723132854 23 359 0.0 8.0 0.00 0.00 0.00 72 1018.4
20210723131854 22 352 0.0 4.8 0.00 0.00 0.00 72 1018.5
20210723130854 22 352 0.0 8.0 0.00 0.00 0.00 74 1018.5
20210723125854 22 354 4.8 8.0 0.00 0.00 0.00 74 1018.5
20210723124854 22 353 6.4 11.3 0.00 0.00 0.00 74 1018.5
20210723123854 22 349 6.4 16.1 0.00 0.00 0.00 75 1018.5
20210723122854 22 349 6.4 11.3 0.00 0.00 0.00 77 1018.4
20210723121854 21 10 4.8 11.3 0.00 0.00 0.00 77 1018.4
20210723120854 21 354 6.4 16.1 0.00 0.00 0.00 77 1018.3
20210723115853 21 358 0.0 16.1 0.00 0.00 0.00 77 1018.2
20210723114853 21 14 6.4 14.5 0.00 0.00 0.00 79 1018.2
20210723113854 21 341 9.7 14.5 0.00 0.00 0.00 80 1018.1
20210723112854 20 345 4.8 11.3 0.00 0.00 0.00 82 1018.1
20210723111854 20 340 4.8 16.1 0.00 0.00 0.00 82 1018.0
20210723110854 20 352 1.6 11.3 0.00 0.00 0.00 82 1017.9
20210723105854 20 347 1.6 9.7 0.00 0.00 0.00 82 1017.8
20210723104854 20 328 3.2 6.4 0.00 0.00 0.00 84 1017.7
20210723103854 20 337 0.0 6.4 0.00 0.00 0.00 84 1017.9
20210723102854 20 352 0.0 11.3 0.00 0.00 0.00 84 1017.7
20210723101853 20 345 0.0 0.0 0.00 0.00 0.00 84 1017.6
20210723100854 20 329 0.0 0.0 0.00 0.00 0.00 85 1017.6
20210723095854 20 329 0.0 0.0 0.00 0.00 0.00 84 1017.5
20210723094854 20 329 0.0 4.8 0.00 0.00 0.00 84 1017.4
20210723093854 20 343 0.0 8.0 0.00 0.00 0.00 84 1017.3
20210723092854 20 346 0.0 4.8 0.00 0.00 0.00 83 1017.2
20210723091853 20 342 0.0 8.0 0.00 0.00 0.00 83 1017.0
20210723090853 20 1 0.0 0.0 0.00 0.00 0.00 84 1016.9
20210723085853 20 1 0.0 0.0 0.00 0.00 0.00 84 1016.7
20210723084854 20 1 0.0 0.0 0.00 0.00 0.00 84 1016.7
20210723083854 20 360 0.0 0.0 0.00 0.00 0.00 84 1016.6
20210723082854 20 2 0.0 0.0 0.00 0.00 0.00 84 1016.6
20210723081853 21 4 0.0 6.4 0.00 0.00 0.00 85 1016.5
20210723080854 21 9 0.0 8.0 0.00 0.00 0.00 85 1016.6
20210723075853 21 2 0.0 6.4 0.00 0.00 0.00 85 1016.5
20210723074853 21 328 0.0 8.0 0.00 0.00 0.00 85 1016.7
20210723073853 21 312 0.0 4.8 0.00 0.00 0.00 87 1016.7
20210723072853 21 312 0.0 4.8 0.00 0.00 0.00 87 1016.8
20210723071853 21 312 0.0 4.8 0.00 0.00 0.00 87 1016.8
20210723070853 21 312 0.0 6.4 0.00 0.00 0.00 87 1016.8
20210723065853 21 285 0.0 0.0 0.00 0.00 0.00 87 1016.9
20210723064853 21 286 0.0 1.6 0.00 0.00 0.00 88 1016.9
20210723063853 21 284 0.0 1.6 0.00 0.00 0.00 88 1017.0
20210723062853 21 284 0.0 1.6 0.00 0.00 0.00 87 1017.1
20210723061853 21 282 0.0 4.8 0.00 0.00 0.00 87 1017.0
20210723060853 21 300 0.0 0.0 0.00 0.00 0.00 87 1017.2
20210723055853 21 300 0.0 4.8 0.00 0.00 0.00 87 1017.0
20210723054853 21 301 0.0 0.0 0.00 0.00 0.00 87 1017.1
20210723053853 21 302 0.0 3.2 0.00 0.00 0.00 87 1017.1
20210723052853 21 300 0.0 8.0 0.00 0.00 0.00 87 1017.2
20210723051853 22 307 0.0 4.8 0.00 0.00 0.00 87 1017.2
20210723050853 22 300 0.0 4.8 0.00 0.00 0.00 87 1017.3
20210723045853 22 278 0.0 4.8 0.00 0.00 0.00 87 1017.3
20210723044853 22 282 4.8 9.7 0.00 0.00 0.00 87 1017.3
20210723043853 22 297 0.0 11.3 0.00 0.00 0.00 87 1017.4
20210723042853 22 269 0.0 14.5 0.00 0.00 0.00 87 1017.4
20210723041853 21 281 0.0 8.0 0.00 0.00 0.00 88 1017.4
20210723040853 21 262 1.6 6.4 0.00 0.00 0.00 88 1017.5
20210723035853 21 258 3.2 9.7 0.00 0.00 0.00 88 1017.4
20210723034853 21 267 1.6 8.0 0.00 0.00 0.00 87 1017.6
20210723033853 21 43 1.6 11.3 0.00 0.00 0.00 88 1017.6
20210723032853 21 254 0.0 9.7 0.00 0.00 0.00 88 1017.6
20210723031853 21 256 0.0 11.3 0.00 0.00 0.00 88 1017.7
20210723030853 22 261 0.0 11.3 0.00 0.00 0.00 88 1017.8
20210723025853 22 43 1.6 11.3 0.00 0.00 0.00 88 1017.8
20210723024853 22 254 0.0 9.7 0.00 0.00 0.00 89 1017.9
20210723023853 22 242 0.0 12.9 0.00 0.00 0.00 89 1017.9
20210723022853 22 253 0.0 27.4 0.00 0.00 0.00 89 1017.9
20210723021853 22 43 3.2 17.7 0.00 0.00 0.00 89 1017.8
20210723020853 22 232 4.8 19.3 0.00 0.00 0.00 89 1017.9
20210723015853 22 227 1.6 20.9 0.00 0.00 0.00 89 1017.9
20210723014853 22 225 4.8 24.1 0.00 0.00 0.00 88 1017.7
20210723013853 22 258 6.4 25.7 0.00 0.00 0.00 88 1017.5
20210723012853 22 233 0.0 20.9 0.00 0.00 0.00 88 1017.4
20210723011853 22 240 1.6 25.7 0.00 0.00 0.00 89 1017.3
20210723010853 22 220 6.4 22.5 0.00 0.00 0.00 88 1017.2
20210723005853 22 216 9.7 20.9 0.00 0.00 0.00 88 1017.2
20210723004853 22 226 0.0 20.9 0.00 0.00 0.00 87 1017.2
20210723003853 22 207 6.4 22.5 0.00 0.00 0.00 87 1017.2
20210723002853 22 224 6.4 17.7 0.00 0.00 0.00 87 1017.2
20210723001853 22 233 9.7 16.1 0.00 0.00 0.00 86 1017.1
20210723000853 22 210 0.0 16.1 0.00 0.00 0.00 85 1017.1
20210722235853 22 195 3.2 17.7 0.00 0.00 0.00 83 1017.2
20210722234853 22 191 6.4 14.5 0.00 0.00 0.00 81 1017.1
20210722233853 22 199 0.0 12.9 0.00 0.00 0.00 78 1017.1
20210722232853 22 199 1.6 16.1 0.00 0.00 0.00 76 1017.2
20210722231854 22 225 6.4 20.9 0.00 0.00 0.00 73 1017.0
20210722230853 22 198 1.6 16.1 0.00 0.00 0.00 79 1017.0
20210722225853 22 223 0.0 14.5 0.00 0.00 0.00 81 1016.9
20210722224853 22 43 6.4 20.9 0.00 0.00 0.00 79 1017.0
20210722223853 22 266 6.4 30.6 0.00 0.00 0.00 79 1016.9
20210722222853 22 261 16.1 32.2 0.00 0.00 0.00 77 1016.7
20210722221853 22 259 3.2 22.5 0.00 0.00 0.00 78 1016.6
20210722220853 22 259 3.2 24.1 0.00 0.00 0.00 77 1016.6
20210722215853 22 234 3.2 22.5 0.00 0.00 0.00 76 1016.5
20210722214853 22 233 14.5 20.9 0.00 0.00 0.00 77 1016.5
20210722213853 22 217 6.4 27.4 0.00 0.00 0.00 79 1016.7
20210722212853 22 236 3.2 25.7 0.00 0.00 0.00 78 1016.6
20210722211853 23 235 6.4 32.2 0.00 0.00 0.00 78 1016.6
20210722210853 23 221 24.1 33.8 0.00 0.00 0.00 78 1016.6
20210722205853 23 204 8.0 20.9 0.00 0.00 0.00 76 1016.5
20210722204853 23 252 9.7 27.4 0.00 0.00 0.00 76 1016.5
20210722203853 24 223 8.0 17.7 0.00 0.00 0.00 74 1016.4
20210722202853 24 246 0.0 17.7 0.00 0.00 0.00 70 1016.5
20210722201853 24 198 1.6 11.3 0.00 0.00 0.00 69 1016.4
20210722200853 24 183 3.2 16.1 0.00 0.00 0.00 70 1016.4
20210722195853 24 203 0.0 16.1 0.00 0.00 0.00 69 1016.4
20210722194853 24 205 0.0 19.3 0.00 0.00 0.00 70 1016.3
20210722193853 24 208 0.0 17.7 0.00 0.00 0.00 73 1016.3
20210722192853 24 187 0.0 19.3 0.00 0.00 0.00 71 1016.4
20210722191853 24 216 0.0 16.1 0.00 0.00 0.00 72 1016.5
20210722190853 24 214 4.8 17.7 0.00 0.00 0.00 72 1016.3
20210722185853 25 202 0.0 19.3 0.00 0.00 0.00 69 1016.2
20210722184853 25 233 3.2 14.5 0.00 0.00 0.00 69 1016.4
20210722183853 26 43 14.5 19.3 0.00 0.00 0.00 63 1016.4
20210722182853 25 61 0.0 8.0 0.00 0.00 0.00 54 1016.3
20210722181853 25 356 4.8 14.5 0.00 0.00 0.00 56 1016.1
20210722180852 25 345 9.7 14.5 0.00 0.00 0.00 54 1016.2
20210722175853 25 344 4.8 16.1 0.00 0.00 0.00 55 1016.2
20210722174853 25 9 8.0 17.7 0.00 0.00 0.00 56 1016.1
20210722173853 25 335 6.4 9.7 0.00 0.00 0.00 60 1016.1
20210722172853 25 12 3.2 17.7 0.00 0.00 0.00 62 1016.1
20210722171853 25 344 0.0 16.1 0.00 0.00 0.00 61 1016.1
20210722170853 25 281 0.0 16.1 0.00 0.00 0.00 61 1016.2
20210722165852 25 331 8.0 17.7 0.00 0.00 0.00 60 1016.2
20210722164853 25 12 9.7 14.5 0.00 0.00 0.00 61 1016.2
20210722163852 25 333 4.8 16.1 0.00 0.00 0.00 62 1016.2
20210722162852 24 12 1.6 14.5 0.00 0.00 0.00 63 1016.2
20210722161852 23 19 3.2 17.7 0.00 0.00 0.00 64 1016.1
20210722160852 24 7 8.0 20.9 0.00 0.00 0.00 62 1016.1
20210722155852 24 352 1.6 14.5 0.00 0.00 0.00 67 1016.1
20210722154852 23 335 8.0 16.1 0.00 0.00 0.00 66 1016.1
20210722153852 23 345 0.0 16.1 0.00 0.00 0.00 69 1016.1